FW5145 Weather Reports


Display with metric or nautical units.
time (UTC)temp
F
wind
direction
speed
MPH
gust
MPH
rain 1hr
in
rain 24hr
in
rain mn
in
humidity
%
barometer
mb
20260502164034 57 0 0.0 0.0 0.08 0.08 0.08 100 1013.3
20260502163533 57 0 0.0 0.0 0.07 0.07 0.07 100 1013.4
20260502163043 57 0 0.0 0.0 0.07 0.07 0.07 100 1013.5
20260502162532 58 0 0.0 3.0 0.07 0.07 0.07 100 1013.6
20260502162035 58 0 0.0 3.0 0.07 0.07 0.07 100 1013.8
20260502161543 59 199 0.0 4.0 0.07 0.07 0.07 100 1013.9
20260502161035 60 196 1.0 6.0 0.07 0.07 0.07 100 1014.1
20260502160535 60 211 1.0 6.0 0.06 0.06 0.06 100 1014.3
20260502152033 68 285 0.0 3.0 0.00 0.00 0.00 100 1014.1
20260502151559 68 0 0.0 2.0 0.00 0.00 0.00 100 1014.0
20260502151032 68 0 0.0 4.0 0.00 0.00 0.00 100 1014.0
20260502150531 68 348 1.0 4.0 0.00 0.00 0.00 100 1014.1
20260502130533 70 0 1.0 7.0 0.00 0.00 0.00 100 1015.6
20260502123531 69 218 1.0 5.0 0.00 0.00 0.00 100 1016.3
20260502123043 69 208 1.0 6.0 0.00 0.00 0.00 100 1016.4
20260502122535 69 247 1.0 6.0 0.00 0.00 0.00 100 1016.3
20260502122034 69 261 1.0 6.0 0.00 0.00 0.00 100 1016.5
20260502121543 68 11 1.0 6.0 0.00 0.00 0.00 100 1016.6
20260502121034 68 229 1.0 6.0 0.00 0.00 0.00 100 1016.5
20260502120533 67 284 2.0 6.0 0.00 0.00 0.00 100 1016.6
20260502115534 67 269 0.0 5.0 0.00 0.00 0.00 100 1016.7
20260502115032 66 0 1.0 5.0 0.00 0.00 0.00 100 1016.9
20260502114536 66 300 1.0 4.0 0.00 0.00 0.00 100 1016.9
20260502114032 66 0 1.0 4.0 0.00 0.00 0.00 100 1017.0
20260502113533 65 266 1.0 5.0 0.00 0.00 0.00 100 1017.1
20260502113036 65 252 1.0 5.0 0.00 0.00 0.00 100 1017.3
20260502112532 65 241 0.0 5.0 0.00 0.00 0.00 100 1017.3
20260502112033 65 238 1.0 5.0 0.00 0.00 0.00 100 1017.4
20260502111544 65 0 0.0 4.0 0.00 0.00 0.00 100 1017.4
20260502111031 64 0 1.0 4.0 0.00 0.00 0.00 100 1017.4
20260502110534 64 81 1.0 4.0 0.00 0.00 0.00 100 1017.4
20260502110044 63 352 0.0 3.0 0.00 0.00 0.00 100 1017.5
20260502105534 62 337 0.0 3.0 0.00 0.00 0.00 100 1017.5
20260502105036 62 294 0.0 4.0 0.00 0.00 0.00 100 1017.6
20260502104549 62 282 1.0 4.0 0.00 0.00 0.00 100 1017.7
20260502104032 62 264 1.0 3.0 0.00 0.00 0.00 100 1017.8
20260502103538 62 317 0.0 4.0 0.00 0.00 0.00 100 1017.8
20260502103041 61 0 1.0 4.0 0.00 0.00 0.00 100 1017.8
20260502102532 61 202 0.0 3.0 0.00 0.00 0.00 100 1017.9
20260502102033 60 330 0.0 3.0 0.00 0.00 0.00 100 1018.0
20260502101546 60 0 0.0 3.0 0.00 0.00 0.00 100 1017.9
20260502101033 60 0 1.0 3.0 0.00 0.00 0.00 100 1018.0
20260502100531 60 226 0.0 3.0 0.00 0.00 0.00 100 1018.0
20260502091031 54 327 1.0 4.0 0.00 0.00 0.00 100 1018.1
20260502090531 54 216 0.0 4.0 0.00 0.00 0.00 100 1018.3
20260502071033 50 249 0.0 4.0 0.00 0.00 0.00 100 1018.9
20260502070532 50 0 0.0 4.0 0.00 0.00 0.00 100 1018.8
20260502070041 50 271 1.0 4.0 0.00 0.00 0.00 100 1018.9
20260502065534 50 186 1.0 3.0 0.00 0.00 0.00 100 1018.7
20260502065036 50 0 0.0 2.0 0.00 0.00 0.00 100 1018.7
20260502064553 50 0 0.0 0.0 0.00 0.00 0.00 100 1018.8
20260502064035 50 0 0.0 0.0 0.00 0.00 0.00 100 1018.8
20260502063534 50 0 0.0 0.0 0.00 0.00 0.00 100 1018.8
20260502063039 50 0 0.0 1.0 0.00 0.00 0.00 100 1018.9
20260502062533 50 0 0.0 1.0 0.00 0.00 0.00 100 1018.9
20260502062034 49 0 0.0 2.0 0.00 0.00 0.00 100 1018.9
20260502061542 49 0 0.0 4.0 0.00 0.00 0.00 100 1018.9
20260502061031 49 221 1.0 4.0 0.00 0.00 0.00 100 1018.8
20260502060534 50 0 0.0 0.0 0.00 0.00 0.00 100 1018.7
20260502060047 50 0 0.0 2.0 0.00 0.00 0.00 100 1018.9
20260502055533 49 0 0.0 3.0 0.00 0.00 0.00 100 1018.8
20260502055035 49 0 0.0 3.0 0.00 0.00 0.00 100 1019.0
20260502054548 49 0 0.0 3.0 0.00 0.00 0.00 100 1019.0
20260502054035 49 0 1.0 3.0 0.00 0.00 0.00 100 1019.1
20260502053533 49 0 0.0 0.0 0.00 0.00 0.00 100 1019.0
20260502053042 49 0 0.0 0.0 0.00 0.00 0.00 100 1018.9
20260502052533 49 0 0.0 0.0 0.00 0.00 0.00 100 1018.6
20260502052037 49 0 0.0 0.0 0.00 0.00 0.00 100 1018.8
20260502051542 49 0 0.0 0.0 0.00 0.00 0.00 100 1018.7
20260502051034 49 0 0.0 0.0 0.00 0.00 0.00 100 1018.9
20260502050533 49 0 0.0 0.0 0.00 0.00 0.00 100 1018.9
20260502050047 49 0 0.0 0.0 0.00 0.00 0.00 100 1018.9
20260502045532 49 0 0.0 0.0 0.00 0.00 0.00 100 1018.8
20260502045032 49 0 0.0 0.0 0.00 0.00 0.00 100 1018.7
20260502044549 49 0 0.0 0.0 0.00 0.00 0.00 100 1018.8
20260502044031 49 0 0.0 0.0 0.00 0.00 0.00 100 1018.8
20260502043533 49 0 0.0 3.0 0.00 0.00 0.00 100 1018.7
20260502043047 49 0 0.0 3.0 0.00 0.00 0.00 100 1018.7
20260502042532 49 0 0.0 3.0 0.00 0.00 0.00 100 1018.7
20260502042033 49 233 0.0 3.0 0.00 0.00 0.00 100 1018.7
20260502041543 49 0 0.0 0.0 0.00 0.00 0.00 100 1018.7
20260502041035 49 0 0.0 2.0 0.00 0.00 0.00 100 1018.7
20260502040532 50 0 0.0 4.0 0.00 0.00 0.00 100 1018.8
20260502040052 50 0 0.0 4.0 0.00 0.00 0.00 100 1018.8
20260502035532 50 0 0.0 3.0 0.00 0.00 0.00 100 1019.0
20260502035032 50 0 0.0 0.0 0.00 0.00 0.00 100 1019.0
20260502034537 50 0 0.0 0.0 0.00 0.00 0.00 100 1019.1
20260502034032 50 0 0.0 0.0 0.00 0.00 0.00 100 1019.1
20260502033532 50 0 0.0 0.0 0.00 0.00 0.00 100 1019.1
20260502033036 50 0 0.0 1.0 0.00 0.00 0.00 100 1019.1
20260502032535 50 0 0.0 3.0 0.00 0.00 0.00 100 1019.1
20260502032031 50 0 0.0 3.0 0.00 0.00 0.00 100 1019.2
20260502031548 50 0 0.0 3.0 0.00 0.00 0.00 100 1019.1
20260502031031 50 0 0.0 3.0 0.00 0.00 0.00 100 1019.2
20260502030532 50 0 0.0 3.0 0.00 0.00 0.00 100 1019.2
20260502030041 50 0 0.0 3.0 0.00 0.00 0.00 100 1019.1
20260502025532 50 0 0.0 0.0 0.00 0.00 0.00 100 1019.2
20260502025032 50 0 0.0 0.0 0.00 0.00 0.00 100 1019.2
20260502024541 50 0 0.0 0.0 0.00 0.00 0.00 100 1019.2
20260502024035 50 0 0.0 0.0 0.00 0.00 0.00 100 1019.1
20260502023534 50 0 0.0 2.0 0.00 0.00 0.00 100 1019.3
20260502023039 50 0 0.0 4.0 0.00 0.00 0.00 100 1019.3
20260502022533 50 0 0.0 4.0 0.00 0.00 0.00 100 1019.4
20260502022031 50 0 0.0 4.0 0.00 0.00 0.00 100 1019.4
20260502021538 50 0 1.0 4.0 0.00 0.00 0.00 100 1019.4
20260502021032 50 0 0.0 0.0 0.00 0.00 0.00 100 1019.4
20260502020532 50 0 0.0 2.0 0.00 0.00 0.00 100 1019.4
20260502020058 50 0 0.0 6.0 0.00 0.00 0.00 100 1019.4
20260502015532 50 0 1.0 6.0 0.00 0.00 0.00 100 1019.5
20260502015032 50 254 0.0 2.0 0.00 0.00 0.00 100 1019.5
20260502014550 50 0 0.0 2.0 0.00 0.00 0.00 100 1019.5
20260502014031 50 0 0.0 3.0 0.00 0.00 0.00 100 1019.5
20260502013531 50 0 0.0 3.0 0.00 0.00 0.00 100 1019.5
20260502013243 50 0 0.0 3.0 0.00 0.00 0.00 100 1019.6
20260502012532 50 241 0.0 3.0 0.00 0.00 0.00 100 1019.7
20260502012034 50 0 0.0 2.0 0.00 0.00 0.00 100 1019.7
20260502011551 50 130 0.0 3.0 0.00 0.00 0.00 100 1019.7
20260502011033 50 0 0.0 3.0 0.00 0.00 0.00 100 1019.8
20260502010531 50 0 1.0 3.0 0.00 0.00 0.00 100 1019.8
20260502010045 50 252 0.0 3.0 0.00 0.00 0.00 100 1019.7
20260502005533 50 0 0.0 3.0 0.00 0.00 0.00 100 1019.9
20260502005037 50 0 0.0 1.0 0.00 0.00 0.00 100 1020.0
20260502004547 50 0 0.0 1.0 0.00 0.00 0.00 100 1020.0
20260502004032 50 173 0.0 3.0 0.00 0.00 0.00 100 1020.1
20260502003537 50 0 0.0 3.0 0.00 0.00 0.00 100 1020.2
20260502003046 50 0 0.0 2.0 0.00 0.00 0.00 100 1020.2
20260502002533 50 0 0.0 2.0 0.00 0.00 0.00 100 1020.2
20260502002032 50 0 0.0 2.0 0.00 0.00 0.00 100 1020.3
20260502001621 50 221 0.0 2.0 0.00 0.00 0.00 100 1020.3
20260502001033 51 223 0.0 4.0 0.00 0.00 0.00 100 1020.3
20260502000533 51 223 0.0 4.0 0.00 0.00 0.00 100 1020.4
20260502000041 51 184 1.0 3.0 0.00 0.00 0.00 100 1020.4
20260501235531 51 0 0.0 3.0 0.00 0.00 0.00 100 1020.6
20260501235034 51 0 0.0 4.0 0.00 0.00 0.00 100 1020.5
20260501234538 51 215 0.0 4.0 0.00 0.00 0.00 100 1020.6
20260501234034 51 207 1.0 4.0 0.00 0.00 0.00 100 1020.6
20260501233536 52 215 1.0 4.0 0.00 0.00 0.00 100 1020.7
20260501233045 52 0 1.0 6.0 0.00 0.00 0.00 100 1020.6
20260501232533 52 192 1.0 6.0 0.00 0.00 0.00 100 1020.6
20260501232033 52 249 1.0 6.0 0.00 0.00 0.00 100 1020.6
20260501231541 52 204 2.0 6.0 0.00 0.00 0.00 100 1020.6
20260501231033 53 0 1.0 6.0 0.00 0.00 0.00 100 1020.6
20260501230532 53 0 1.0 6.0 0.00 0.00 0.00 100 1020.6
20260501230044 53 219 0.0 4.0 0.00 0.00 0.00 100 1020.7
20260501225533 53 221 0.0 4.0 0.00 0.00 0.00 100 1020.7
20260501225033 54 223 0.0 4.0 0.00 0.00 0.00 100 1020.6
20260501224558 54 0 0.0 2.0 0.00 0.00 0.00 100 1020.6
20260501224033 54 202 0.0 1.0 0.00 0.00 0.00 100 1020.5
20260501223534 54 0 0.0 4.0 0.00 0.00 0.00 100 1020.6
20260501223045 54 0 0.0 5.0 0.00 0.00 0.00 100 1020.7
20260501222534 55 185 1.0 5.0 0.00 0.00 0.00 100 1020.7
20260501222034 55 259 0.0 3.0 0.00 0.00 0.00 100 1020.6
20260501221540 55 0 0.0 3.0 0.00 0.00 0.00 100 1020.5
20260501221035 55 0 0.0 4.0 0.00 0.00 0.00 100 1020.8
20260501220531 55 0 0.0 4.0 0.00 0.00 0.00 100 1020.8
20260501220049 56 0 0.0 4.0 0.00 0.00 0.00 100 1020.8
20260501215534 56 0 0.0 4.0 0.00 0.00 0.00 100 1020.8
20260501215033 56 0 0.0 3.0 0.00 0.00 0.00 100 1020.8
20260501214543 56 0 0.0 3.0 0.00 0.00 0.00 100 1020.8
20260501214031 56 0 0.0 3.0 0.00 0.00 0.00 100 1020.7
20260501213532 56 0 0.0 2.0 0.00 0.00 0.00 100 1020.7
20260501213045 57 0 0.0 2.0 0.00 0.00 0.00 100 1020.8
20260501212534 57 207 0.0 1.0 0.00 0.00 0.00 100 1020.9
20260501212031 57 0 0.0 1.0 0.00 0.00 0.00 100 1020.9
20260501211546 57 0 0.0 2.0 0.00 0.00 0.00 100 1020.8
20260501211034 58 0 0.0 2.0 0.00 0.00 0.00 100 1020.8
20260501210531 58 0 0.0 2.0 0.00 0.00 0.00 100 1020.7
20260501210053 58 0 0.0 3.0 0.00 0.00 0.00 100 1020.6
20260501205534 58 0 0.0 3.0 0.00 0.00 0.00 100 1020.6
20260501205034 58 0 0.0 6.0 0.00 0.00 0.00 100 1020.7
20260501204548 58 0 1.0 6.0 0.00 0.00 0.00 100 1020.5
20260501204032 59 0 0.0 3.0 0.00 0.00 0.00 100 1020.6
20260501203533 59 0 0.0 3.0 0.00 0.00 0.00 100 1020.6
20260501203045 59 0 0.0 3.0 0.00 0.00 0.00 100 1020.7
20260501202532 59 0 0.0 4.0 0.00 0.00 0.00 100 1020.7
20260501202032 60 192 1.0 4.0 0.00 0.00 0.00 100 1020.7
20260501201543 60 187 0.0 0.0 0.00 0.00 0.00 100 1020.7
20260501201036 60 0 0.0 0.0 0.00 0.00 0.00 100 1020.7
20260501200534 61 0 0.0 0.0 0.00 0.00 0.00 100 1020.7
20260501200050 61 0 0.0 0.0 0.00 0.00 0.00 100 1020.7
20260501195532 61 0 0.0 0.0 0.00 0.00 0.00 100 1020.5
20260501195033 61 0 0.0 3.0 0.00 0.00 0.00 100 1020.5
20260501194549 61 0 0.0 3.0 0.00 0.00 0.00 100 1020.5
20260501194031 62 0 0.0 6.0 0.00 0.00 0.00 100 1020.6
20260501193531 62 198 0.0 6.0 0.00 0.00 0.00 100 1020.7
20260501193043 62 0 2.0 6.0 0.00 0.00 0.00 100 1020.6
20260501192532 62 0 0.0 3.0 0.00 0.00 0.00 100 1020.3
20260501192034 63 0 0.0 4.0 0.00 0.00 0.00 100 1020.5
20260501191541 63 0 1.0 4.0 0.00 0.00 0.00 100 1020.4
20260501191033 63 0 0.0 3.0 0.00 0.00 0.00 100 1020.4
20260501190535 63 248 0.0 4.0 0.00 0.00 0.00 100 1020.2
20260501190045 63 0 1.0 4.0 0.00 0.00 0.00 100 1020.2
20260501185533 64 0 0.0 2.0 0.00 0.00 0.00 100 1020.1
20260501185033 64 0 0.0 4.0 0.00 0.00 0.00 100 1020.1
20260501184543 64 0 0.0 4.0 0.00 0.00 0.00 100 1020.2
20260501184032 64 192 0.0 4.0 0.00 0.00 0.00 100 1020.1
20260501183532 64 0 0.0 4.0 0.00 0.00 0.00 100 1020.2
20260501183045 64 0 0.0 4.0 0.00 0.00 0.00 100 1020.3
20260501182531 64 0 0.0 3.0 0.00 0.00 0.00 100 1020.3
20260501182031 64 0 0.0 5.0 0.00 0.00 0.00 100 1020.4
20260501181544 64 219 1.0 5.0 0.00 0.00 0.00 100 1020.4
20260501181032 64 182 1.0 5.0 0.00 0.00 0.00 100 1020.3
20260501180532 64 0 0.0 4.0 0.00 0.00 0.00 100 1020.2
20260501180044 65 0 0.0 4.0 0.00 0.00 0.00 100 1020.3